When you browse on this site, cookies collect data to enhance your experience and personalize the content and advertising you see.
Visit our Privacy Policy to learn more. By continuing to use the site, you agree to this use of cookies and data.
  • In Romania
  • List of Countries
  • For 7 days
  • Water Temperature
  • Satellite Maps
  • Weather Map
  • Weather Widgets
  • user-avatar
    Login

    Hourly Weather Kweta

    Today, 20 July, Saturday

    Time Temperature Precipitation Wind Pressure Humidity
    00:00 +25°C° 0.4 mm 3 mps 615 mmHg 72%
    01:00 +25°C° 0.4 mm 2 mps 615 mmHg 73%
    02:00 +24°C° 0.1 mm 2 mps 614 mmHg 76%
    03:00 +24°C° 0.1 mm 2 mps 614 mmHg 78%
    04:00 +23°C° 0 mm 1 mps 614 mmHg 79%
    05:00 +24°C° 0 mm 1 mps 615 mmHg 71%
    06:00 +26°C° 0 mm 1 mps 616 mmHg 63%
    07:00 +27°C° 0 mm 1 mps 617 mmHg 55%
    08:00 +29°C° 0 mm 2 mps 617 mmHg 48%
    09:00 +31°C° 0 mm 2 mps 618 mmHg 42%
    10:00 +32°C° 0 mm 2 mps 618 mmHg 36%
    11:00 +34°C° 0 mm 3 mps 618 mmHg 33%
    12:00 +35°C° 0 mm 3 mps 618 mmHg 31%
    13:00 +36°C° 0 mm 3 mps 618 mmHg 28%
    14:00 +35°C° 0.5 mm 3 mps 617 mmHg 31%
    15:00 +34°C° 0.5 mm 4 mps 617 mmHg 35%
    16:00 +33°C° 0.5 mm 4 mps 616 mmHg 38%
    17:00 +32°C° 0.3 mm 4 mps 616 mmHg 42%
    18:00 +30°C° 0.3 mm 4 mps 616 mmHg 46%
    19:00 +28°C° 0.3 mm 3 mps 616 mmHg 50%
    20:00 +28°C° 0 mm 3 mps 615 mmHg 53%
    21:00 +27°C° 0 mm 2 mps 615 mmHg 55%
    22:00 +26°C° 0 mm 2 mps 615 mmHg 58%
    23:00 +26°C° 0 mm 2 mps 615 mmHg 60%

    Tomorrow, 21 July, Sunday

    Time Temperature Precipitation Wind Pressure Humidity
    00:00 +26°C° 0 mm 2 mps 615 mmHg 62%
    01:00 +25°C° 0 mm 2 mps 615 mmHg 64%
    02:00 +25°C° 0 mm 1 mps 615 mmHg 66%
    03:00 +24°C° 0 mm 1 mps 614 mmHg 68%
    04:00 +24°C° 0 mm 1 mps 614 mmHg 70%
    05:00 +25°C° 0 mm 1 mps 615 mmHg 65%
    06:00 +26°C° 0 mm 1 mps 616 mmHg 60%
    07:00 +25°C° 0 mm 0 mps 617 mmHg 55%
    08:00 +29°C° 0 mm 1 mps 617 mmHg 47%
    09:00 +31°C° 0 mm 1 mps 617 mmHg 40%
    10:00 +32°C° 0 mm 2 mps 618 mmHg 33%
    11:00 +34°C° 0 mm 2 mps 618 mmHg 30%
    12:00 +35°C° 0 mm 3 mps 618 mmHg 28%
    13:00 +37°C° 0 mm 3 mps 618 mmHg 25%
    14:00 +35°C° 0.2 mm 4 mps 617 mmHg 29%
    15:00 +34°C° 0.2 mm 4 mps 616 mmHg 34%
    16:00 +33°C° 0.2 mm 5 mps 615 mmHg 38%
    17:00 +30°C° 0.3 mm 5 mps 615 mmHg 44%
    18:00 +29°C° 0.3 mm 4 mps 615 mmHg 50%
    19:00 +27°C° 0.3 mm 4 mps 615 mmHg 56%
    20:00 +27°C° 0 mm 3 mps 615 mmHg 54%
    21:00 +27°C° 0 mm 2 mps 615 mmHg 53%
    22:00 +26°C° 0 mm 2 mps 615 mmHg 51%
    23:00 +26°C° 0 mm 1 mps 615 mmHg 52%

    Day after tomorrow, 22 July, Monday

    Time Temperature Precipitation Wind Pressure Humidity
    00:00 +26°C° 0 mm 1 mps 615 mmHg 53%
    01:00 +25°C° 0 mm 1 mps 614 mmHg 54%
    02:00 +25°C° 0 mm 1 mps 614 mmHg 54%
    03:00 +25°C° 0 mm 1 mps 614 mmHg 55%
    04:00 +24°C° 0 mm 1 mps 614 mmHg 55%
    05:00 +26°C° 0 mm 1 mps 615 mmHg 50%
    06:00 +27°C° 0 mm 1 mps 615 mmHg 44%
    07:00 +28°C° 0 mm 1 mps 616 mmHg 39%
    08:00 +30°C° 0 mm 1 mps 616 mmHg 35%
    09:00 +31°C° 0 mm 1 mps 617 mmHg 31%
    10:00 +33°C° 0 mm 1 mps 617 mmHg 27%
    11:00 +35°C° 0 mm 2 mps 617 mmHg 25%
    12:00 +36°C° 0 mm 2 mps 617 mmHg 22%
    13:00 +37°C° 0 mm 3 mps 617 mmHg 19%
    14:00 +37°C° 0 mm 3 mps 617 mmHg 20%
    15:00 +37°C° 0 mm 3 mps 616 mmHg 22%
    16:00 +36°C° 0 mm 3 mps 616 mmHg 23%
    17:00 +35°C° 0 mm 3 mps 615 mmHg 25%
    18:00 +34°C° 0 mm 3 mps 615 mmHg 27%
    19:00 +33°C° 0 mm 3 mps 615 mmHg 30%
    20:00 +31°C° 0 mm 3 mps 615 mmHg 33%
    21:00 +30°C° 0 mm 2 mps 614 mmHg 37%
    22:00 +29°C° 0 mm 2 mps 614 mmHg 41%
    23:00 +28°C° 0 mm 1 mps 614 mmHg 43%

    23 July, Tuesday

    Time Temperature Precipitation Wind Pressure Humidity
    00:00 +27°C° 0 mm 1 mps 613 mmHg 45%
    01:00 +25°C° 0 mm 0 mps 613 mmHg 47%
    02:00 +26°C° 0 mm 1 mps 613 mmHg 48%
    03:00 +26°C° 0 mm 1 mps 613 mmHg 48%
    04:00 +25°C° 0 mm 1 mps 613 mmHg 49%
    05:00 +27°C° 0 mm 1 mps 614 mmHg 45%
    06:00 +28°C° 0 mm 1 mps 615 mmHg 41%
    07:00 +28°C° 0 mm 0 mps 616 mmHg 37%
    08:00 +31°C° 0 mm 1 mps 616 mmHg 33%
    09:00 +33°C° 0 mm 1 mps 617 mmHg 29%
    10:00 +35°C° 0 mm 2 mps 617 mmHg 25%
    11:00 +36°C° 0 mm 2 mps 617 mmHg 23%
    12:00 +37°C° 0 mm 2 mps 617 mmHg 21%
    13:00 +38°C° 0 mm 3 mps 617 mmHg 19%
    14:00 +37°C° 0 mm 3 mps 616 mmHg 20%
    15:00 +37°C° 0 mm 3 mps 616 mmHg 21%
    16:00 +37°C° 0 mm 3 mps 615 mmHg 22%
    17:00 +36°C° 0 mm 3 mps 615 mmHg 24%
    18:00 +35°C° 0 mm 3 mps 615 mmHg 26%
    19:00 +34°C° 0 mm 2 mps 615 mmHg 29%
    20:00 +32°C° 0 mm 2 mps 615 mmHg 33%
    21:00 +31°C° 0 mm 2 mps 614 mmHg 37%
    22:00 +29°C° 0 mm 1 mps 614 mmHg 40%
    23:00 +29°C° 0 mm 1 mps 614 mmHg 43%

    24 July, Wednesday

    Time Temperature Precipitation Wind Pressure Humidity
    00:00 +28°C° 0 mm 1 mps 613 mmHg 45%
    01:00 +27°C° 0 mm 1 mps 613 mmHg 47%
    02:00 +27°C° 0 mm 1 mps 613 mmHg 48%
    03:00 +26°C° 0 mm 1 mps 613 mmHg 49%
    04:00 +26°C° 0 mm 1 mps 613 mmHg 49%
    05:00 +27°C° 0 mm 1 mps 614 mmHg 44%
    06:00 +29°C° 0 mm 2 mps 614 mmHg 38%
    07:00 +30°C° 0 mm 2 mps 615 mmHg 32%
    08:00 +32°C° 0 mm 2 mps 616 mmHg 25%
    09:00 +34°C° 0 mm 2 mps 616 mmHg 19%
    10:00 +36°C° 0 mm 2 mps 617 mmHg 12%
    11:00 +37°C° 0 mm 2 mps 617 mmHg 12%
    12:00 +38°C° 0 mm 3 mps 616 mmHg 12%
    13:00 +39°C° 0 mm 3 mps 616 mmHg 11%
    14:00 +40°C° 0 mm 4 mps 616 mmHg 12%
    15:00 +40°C° 0 mm 4 mps 616 mmHg 12%
    16:00 +40°C° 0 mm 5 mps 615 mmHg 12%
    17:00 +39°C° 0 mm 5 mps 615 mmHg 12%
    18:00 +36°C° 0 mm 4 mps 614 mmHg 12%
    19:00 +34°C° 0 mm 4 mps 614 mmHg 12%
    20:00 +33°C° 0 mm 3 mps 614 mmHg 16%
    21:00 +30°C° 0 mm 2 mps 613 mmHg 19%
    22:00 +29°C° 0 mm 1 mps 613 mmHg 23%
    23:00 +28°C° 0 mm 1 mps 613 mmHg 27%

    25 July, Thursday

    Time Temperature Precipitation Wind Pressure Humidity
    00:00 +28°C° 0 mm 1 mps 612 mmHg 31%
    01:00 +27°C° 0 mm 1 mps 612 mmHg 35%
    02:00 +26°C° 0 mm 1 mps 612 mmHg 38%
    03:00 +26°C° 0 mm 1 mps 612 mmHg 42%
    04:00 +23°C° 0 mm 0 mps 612 mmHg 45%
    05:00 +25°C° 0 mm 0 mps 613 mmHg 38%
    06:00 +29°C° 0 mm 1 mps 614 mmHg 31%
    07:00 +31°C° 0 mm 1 mps 615 mmHg 25%
    08:00 +33°C° 0 mm 1 mps 615 mmHg 20%
    09:00 +35°C° 0 mm 2 mps 616 mmHg 14%
    10:00 +37°C° 0 mm 2 mps 616 mmHg 9%
    11:00 +38°C° 0 mm 2 mps 616 mmHg 9%
    12:00 +39°C° 0 mm 3 mps 616 mmHg 9%
    13:00 +40°C° 0 mm 3 mps 616 mmHg 9%
    14:00 +41°C° 0 mm 4 mps 615 mmHg 10%
    15:00 +41°C° 0 mm 5 mps 615 mmHg 11%
    16:00 +40°C° 0 mm 6 mps 614 mmHg 12%
    17:00 +37°C° 0 mm 5 mps 614 mmHg 14%
    18:00 +35°C° 0 mm 3 mps 613 mmHg 16%
    19:00 +32°C° 0 mm 2 mps 613 mmHg 18%
    20:00 +31°C° 0 mm 2 mps 612 mmHg 24%
    21:00 +30°C° 0 mm 2 mps 612 mmHg 31%
    22:00 +29°C° 0 mm 2 mps 612 mmHg 37%
    23:00 +28°C° 0 mm 2 mps 612 mmHg 41%
    Show more